User: anonymous   Login
Location: Oshawa
(43.9000°N, 78.8670°W)
Time: 02:47:03
(UTC-04:00)
Language:

CZ-4C R/B - Orbit

View from above orbital plane
View from above orbital plane
View from above satellite
View from above satellite

Ground track
Ground track

The orbit data is extracted from the following two-line orbital elements,

1 32290U 07055B   17087.86916280 +.00004933 +00000-0 +14010-3 0  9994
2 32290 097.5247 192.6957 0069011 059.1160 301.6845 15.34285813519428
Epoch (UTC): 28 March 2017 20:51:35
Eccentricity: 0.0069011
inclination: 97.5247°
perigee height: 416 km
apogee height: 510 km
right ascension of ascending node: 192.6957°
argument of perigee: 59.1160°
revolutions per day: 15.34285813
mean anomaly at epoch: 301.6845°
orbit number at epoch: 51942

The dashed part of the orbit path shows where the satellite is in the earth's shadow,  

DLR